Regional Weather Roundup
Issued by NWS Upton, NY

Current Version | Previous Version | Text Only | Print | Product List | Glossary On
Versions: 1 2 3 4 5 6 7 8 9 10 11 12 13 14 15 16 17 18 19 20 21 22 23 24 25 26 27 28 29 30 31 32 33 34 35 36 37 38 39 40 41 42 43 44 45 46 47 48 49 50
656
ASUS41 KOKX 271005
RWROKX

REGIONAL WEATHER ROUNDUP
NATIONAL WEATHER SERVICE NEW YORK NY
600 AM EDT WED JUL 27 2016

NOTE: "FAIR" INDICATES FEW OR NO CLOUDS BELOW 12,000 FEET WITH NO
SIGNIFICANT WEATHER AND/OR OBSTRUCTIONS TO VISIBILITY.

NYZ071-072-176-178-NJZ106-104-271100-
NEW YORK CITY METRO AREA

CITY           SKY/WX    TMP DP  RH WIND       PRES   REMARKS
Central Park   CLOUDY    75  62  64 N3        29.97S
LaGuardia APRT CLOUDY    77  63  61 E5        29.94R
Kennedy INTL   MOCLDY    76  60  57 N5        29.95S
Newark/Liberty MOCLDY    74  63  68 N6        29.94R
Bronx Bot Gard   N/A     72  61  68 E3        29.96S
Wall St Helipt CLOUDY    79  64  61 NE6       29.95R
Teterboro      CLOUDY    72  62  71 CALM      29.94R
$$

NYZ177-179-078>081-271100-
LONG ISLAND NEW YORK

CITY           SKY/WX    TMP DP  RH WIND       PRES   REMARKS
Farmingdale    MOCLDY    72  63  73 MISG      29.94S
MacArthur/ISP  MOCLDY    70  64  81 CALM      29.94R
Shirley        PTCLDY    69  64  84 CALM      29.94S
Riverhead      NOT AVBL
Westhampton    PTCLDY    64  61  90 CALM      29.95S
Southhampton     N/A     72  66  83 N1        29.90R
Bridgehampton    N/A     68  64  88 CALM      29.93R
East Hampton   FAIR      66  63  91 CALM      29.93R
Montauk          N/A     67  63  87 CALM      29.94R
$$

NYZ052-065-067-271100-
HUDSON VALLEY

CITY           SKY/WX    TMP DP  RH WIND       PRES   REMARKS
White Plains   PTCLDY    68  61  78 NW7       29.95R
Newburgh       PTCLDY    63  63 100 CALM      29.97S
Montgomery     CLEAR     61  59  93 CALM      29.97R
Poughkeepsie   CLEAR     63  59  87 CALM      29.95S
Albany         PTCLDY    64  59  83 CALM      29.95R
$$

NJZ001-105-106-008-010-013-015-019>022-104-271100-
NEW JERSEY

CITY           SKY/WX    TMP DP  RH WIND       PRES   REMARKS
Newark/Liberty MOCLDY    74  63  68 N6        29.94R
Teterboro      CLOUDY    72  62  71 CALM      29.94R
Caldwell       CLOUDY    70  65  84 CALM      29.96R
Morristown     CLOUDY    64  61  88 CALM      29.96R
Somerville     CLOUDY    67  64  90 CALM      29.94R
Linden         FAIR      74  62  64 CALM      29.96S
Sussex         MOCLDY    62  61  96 CALM      29.98R
Abdover          N/A     63  61  93 CALM      29.98R
Trenton        CLOUDY    74  63  68 N3        29.95R
Millville      CLOUDY    77  73  87 CALM      29.93S
Atlantic City  CLOUDY    74  71  91 CALM      29.94R
Wrightstown    MOCLDY    72  67  85 NE2       29.93R
Toms River     CLOUDY    68  66  93 CALM      29.96R
Belmar         CLOUDY    74  65  73 CALM      29.96R
$$

PAZ047>061-062-071-271100-
EASTERN PENNSYLVANIA

CITY           SKY/WX    TMP DP  RH WIND       PRES   REMARKS
Philadelphia   CLOUDY    77  65  66 NE5       29.95R
Allentown      CLOUDY    68  64  87 N3        29.97R
Scranton       CLEAR     63  60  90 E6        30.01R
$$

CTZ002-004>006-009-010-012-RIZ004-006-007-MAZ004-011-015-271100-
SOUTHERN NEW ENGLAND
 IN CT

CITY           SKY/WX    TMP DP  RH WIND       PRES   REMARKS
Bradley INTL   PTCLDY    66  60  81 W3        29.93R
Hartford       CLEAR     70  65  84 CALM      29.93R
Danbury        CLEAR     61  59  93 SW3       29.98R
Wtrbury/Oxford   N/A     63  57  82 CALM      29.97R
Bridgeport     PTCLDY    71  62  73 CALM      29.94R
Meriden        CLEAR     64  60  87 CALM      29.95R
New Haven      PTCLDY    69  61  75 CALM      29.94R
Chester        FAIR      70  63  78 NW5       29.95R
Groton         CLEAR     67  62  84 N3        29.92R
Wilimantic     NOT AVBL

 IN RI

CITY           SKY/WX    TMP DP  RH WIND       PRES   REMARKS
Providence     PTCLDY    69  61  75 W3        29.93R
Block Island   CLEAR     69  63  81 NW6       29.94R
Westerly       CLEAR     66  61  84 CALM      29.94R
 IN MA

CITY           SKY/WX    TMP DP  RH WIND       PRES   REMARKS
Boston         CLEAR     74  60  61 NW9       29.92R
Worchester     CLEAR     67  57  70 NW6       29.96R
Westfield      CLEAR     63  60  90 CALM      29.94R
Provincetown   CLEAR     68  66  93 NW3       29.92R
Nantucket      PTCLDY    71  65  81 N7        29.91R
$$

ANZ330-335-338-340-345-350-353-355-271100-
COASTAL MARINE OBSERVATIONS


STATION/POSITION TIME  SKY/WX   TEMP    WIND        PRES    VSBY  WAVE
                                AIR SEA DIR/SP/G                  HT/PER
                 (UTC)          (F)     (DEG/KT/KT) (MB)    (MI)  (FT/S)
NY HARB ENTRANCE 0850            75 74  360/  6/  6 1013.4          2/ 7
20S FIRE ISLAND  0850            76 75  360/  6/  6 1013.2          3/ 6
GREAT SOUTH BAY  0900            75 81  330/  6/  8   N/A
23 SSW MONTAUK P 0850            71 69  320/  4/  4 1013.5          2/ 6
15 E BARNEGAT LI 0922               77                N/A           2/ 6
HUDSON CANYON    0850            78 78              1013.0          2/ 6
KINGS POINT      0900            74 72              1013.6
EXECUTION ROCKS  0900            74      CALM  /  2   N/A
CENTRAL LI SOUND 0915            74 73  340/  6/  6   N/A           0
EASTERN LI SOUND 0900            70 68   CALM  /  2   N/A
ROBBINS REEF     0900            77     360/  7/  8 1013.0
$$


>>>>>>>>>>>>>>>>>>>>>>>>>>>> KEY <<<<<<<<<<<<<<<<<<<<<<<<<<<
>                                                          <
>     SKY/WX - Sky Condition/Present Weather               <
>     TMP    - Temperature in Fahrenheit                   <
>     DP     - Dew Point in Fahrenheit                     <
>     RH     - Relative Humidity in Percent                <
>     WIND   - Direction (from) and Speed in MPH           <
>     PRES   - Mean Sea Level Pressure (inches of Hg)      <
>     WCI    - Wind Chill Index                            <
>     VSB    - VISIBILITY IN MILES                         <
>     HX     - HEAT INDEX                                  <
>     TC     - TEMPERATURE IN CELSIUS                      <
>     VRB    - VARIABLE WIND DIRECTION                     <
>                                                          <
>>>>>>>>>>>>>>>>>>>>>>>>>>>> KEY <<<<<<<<<<<<<<<<<<<<<<<<<<<




USA.gov is the U.S. government's official web portal to all federal, state and local government web resources and services.